Location: Saratoga Springs
(43.0831°N, 73.7850°W)
Time: 22:53:53
(UTC-04:00)

Vanguard 2 Rocket - Pass Details

Date: 26 April 2024
Orbit: 556 x 3304 km, 32.9° (Epoch: 21 May)

Event Time Altitude Azimuth Distance (km) Brightness Sun altitude
Rises 20:01:36 0° 226° (SW) 4,970 11.0 -2.6°
Reaches altitude 10° 20:04:35 10° 219° (SW) 4,305 10.6 -3.1°
Maximum altitude 20:16:22 45° 152° (SSE) 3,333 9.4 -5.1°
Drops below altitude 10° 20:33:42 10° 89° (E) 6,207 10.6 -7.9°
Sets 20:39:03 0° 85° (E) 7,291 11.0 -8.8°
